DECAYED

NOAA 16 DEB, 42338 (Decayed)

Orbit data source: Space-Track

NOAA 16 DEB, 42338 was space debris in SSO originally from a launch on Thu, 21 Sep 2000 UTC launched from the Air Force Western Test Range (AFWTR). Debris objects in space refer to the collection of defunct objects orbiting the Earth. Examples of debris include non-operational satellites, rocket bodies, and fragments generated from explosions, collisions, or faulty payload assembly.

Not visible in the next 10 days
Identifier
42338, 2000-055QE
Orbit
Decayed
Last TLE update
8 months ago
Origin
Manufacturer
Unknown
Mission
Decayed spacecraft
Bus & Motor
Unknown
Mass
Unknown
Launch date (UTC)
2000-09-21 (25 years ago)
Launch vehicle
Unknown
Launch site
Air Force Western Test Range (AFWTR)
Object type
Payload
Rocket body
Debris
Shape & HBR
Unknown
Radar Cross Section
Small (<0.1 m²)

Expand to show TLE details & history

TLE from 8 months ago
0 NOAA 16 DEB
1 42338U 00055QE  24325.37762461  .03166497  00000-0  35199-1 0  9996
2 42338  98.6743 109.0176 0029406 302.4142  57.4266 15.58647458456794
Epoch: 2024-11-20T09:03Z
TLE epoch observation values (Epoch: 2024-11-20T09:03:46.766Z)
Latitude
-0.00001°
Longitude
-86.80184°
Altitude
383.995 km
Speed
7.686 km/s
True Right ascension
07h 16m 04s
True Declination
0° 00' 00"
Sunlit
Object was in full shadow at epoch
Visualization orbit readout
Visualization observer readout
Orbital elements
Apogee altitude
408.443 km
Perigee altitude
368.647 km
Semi-major axis
6,766.682 km
Eccentricity
0.00294
Inclination
98.6743°
RAAN
109.0176°
Arg. of periapsis
302.4142°
True anomaly
Unknown
Mean anomaly
57.4266°
Eccentric anomaly
Unknown
Mean motion
3.89924 °/min
Orbital period
92.33 mins
BSTAR
0.035199
Loading maneuver chart data...
Loading SW <> Apogee altitude chart data...
Loading historical data...
Loading historical data...
Loading historical data...
Loading historical data...
Loading historical data...
Loading historical data...
Loading historical data...

NOAA 16 DEB Visibility

Observer location: undefined°, undefined°

This satellite is decayed
Span
Click to sort rows by Start time (UTC) header in descending order
Start Az.
Max El. time (UTC)
Max El. Az.
Max El.
End time (UTC)
End Az.
|